Starlink 31188

operational
NORAD ID: 58804 Int'l Des: 2024-012 Owner: SPXS Country: US Constellation: starlink
LEOCIRCULAR

About Starlink 31188

Description loading...

Live Position

Loading 3D Globe...

Upcoming Passes

Altitude History

Altitude vs Time

uPlot chart will show altitude changes over time

Two-Line Element Set

1 58804U 24012T 25258.51232076 -.00000196 00000-0 23868-5 0 9991
2 58804 43.0006 74.6459 0001237 272.1510 87.9200 15.27578055 94448
Epoch: Sep 15, 2025 • Age: 14 hours

Current Status

Altitude 482.4 km
Velocity 7.63 km/s
Sub-Earth Point 15.80°N, 55.75°E
Launch Date Jan 15, 2024
Age 1.6 years
Type internet

Technical Details

Classification Payload
Mass 730.00 kg
Dry Mass 700.00 kg
Total Mass 730.00 kg
Length 0.30 m
Diameter 4.10 m
Span 29.00 m
Shape Box + pan
Manufacturer SPXS
Bus Type Starlink V2M
Phase Status In Orbit
Owner/State SPXS/US

Large Constellations

Loading constellations...